Tracking 30744 objects as of 23-Jun-2025
HD Live streaming from Space Station
objects crossing your sky now

METEOR 1-26

Track METEOR 1-26 now!
10-day predictions
METEOR 1-26 is classified as:


NORAD ID: 9481
Int'l Code: 1976-102A
Perigee: 849.4 km
Apogee: 881.8 km
Inclination: 81.2 °
Period: 102.1 minutes
Semi major axis: 7236 km
RCS: 4.3206 m2 (large)
Launch date: October 15, 1976
Source: Commonwealth of Independent States (former USSR) (CIS)
Launch site: PLESETSK MISSILE AND SPACE COMPLEX (PKMTR)
Your satellite tracking list
Your tracking list is empty




NASA's NSSDC Master Catalog

Two Line Element Set (TLE):
1 09481U 76102A   25173.34776804  .00000052  00000-0  22326-4 0  9991
2 09481  81.2179  35.8824 0022378 203.3667 156.6489 14.10275266502955
Source of the keplerian elements: AFSPC